Millinocket, ME

2:40 PM EDT on March 28, 2017 (GMT -0400)
Millinocket Municipal

Weather History for KMLT - August, 2013

Change the Weather History Date:

Sunday, August 25, 2013

  Actual Average Record
Temperature  
Mean Temperature 64 °F 64 °F  
Max Temperature 80 °F 75 °F 90 °F (2014)
Min Temperature 48 °F 54 °F 37 °F (1949)
Degree Days  
Heating Degree Days 1 2  
Month to date heating degree days 26 35  
Since 1 June heating degree days 137 175  
Since 1 July heating degree days 36 59  
Cooling Degree Days 0 2  
Month to date cooling degree days 48 67  
Year to date cooling degree days 330 239  
Since 1 June cooling degree days 322 233  
Growing Degree Days 14 (Base 50)    
Moisture  
Dew Point 51 °F    
Average Humidity 63    
Maximum Humidity 93    
Minimum Humidity 33    
Precipitation  
Precipitation 0.00 in 0.14 in 2.17 in (2007)
Month to date precipitation 3.94 3.17  
Year to date precipitation 24.40 26.16  
Sea Level Pressure  
Sea Level Pressure 30.26 in    
Wind  
Wind Speed 2 mph (WNW)    
Max Wind Speed 8 mph    
Max Gust Speed 13 mph    
Visibility 10 miles    
Events      
T = Trace of Precipitation, MM = Missing Value Source: NWS Daily Summary

Daily Weather History Graph

Daily Weather History Graph

Search for Another Location

Airport or City:

Trip Planner

Search our weather history database for the weather conditions in past years. The results will help you decide how hot, cold, wet, or windy it might be!

Date:

Astronomy

Aug. 25, 2013 Rise Set
Actual Time 5:47 AM EDT 7:25 PM EDT
Civil Twilight 5:16 AM EDT 7:56 PM EDT
Nautical Twilight 4:38 AM EDT 8:34 PM EDT
Astronomical Twilight 3:56 AM EDT 9:15 PM EDT
Moon 9:34 PM EDT (8/25) 11:04 AM EDT (8/25)
Length of Visible Light 14h 39m
Length of Day
13h 37m
Waning Gibbous, 76% of the Moon is Illuminated
Aug 25
Waning Gibbous
Aug 28
Last Quarter
Sep 5
New
Sep 12
First Quarter
Sep 19
Full

Hourly Weather History & Observations

Time (EDT) Temp. Dew Point Humidity Pressure Visibility Wind Dir Wind Speed Gust Speed Precip Events Conditions
12:53 AM 53.1 °F 48.9 °F 86% 30.31 in 10.0 mi Calm Calm - N/A   Clear
1:53 AM 51.1 °F 48.0 °F 89% 30.30 in 10.0 mi Calm Calm - N/A   Clear
2:53 AM 51.1 °F 48.0 °F 89% 30.31 in 10.0 mi WNW 3.5 mph - N/A   Clear
3:53 AM 52.0 °F 48.0 °F 86% 30.31 in 10.0 mi WNW 3.5 mph - N/A   Clear
4:53 AM 48.9 °F 46.0 °F 90% 30.32 in 10.0 mi Calm Calm - N/A   Clear
5:53 AM 48.0 °F 45.0 °F 89% 30.34 in 10.0 mi Calm Calm - N/A   Clear
6:53 AM 53.1 °F 48.9 °F 86% 30.35 in 10.0 mi Calm Calm - N/A   Clear
7:53 AM 62.1 °F 53.1 °F 72% 30.36 in 10.0 mi NW 3.5 mph - N/A   Clear
8:53 AM 66.9 °F 53.1 °F 61% 30.34 in 10.0 mi NW 4.6 mph - N/A   Clear
9:53 AM 71.1 °F 53.1 °F 53% 30.33 in 10.0 mi Calm Calm - N/A   Clear
10:53 AM 72.0 °F 53.1 °F 51% 30.32 in 10.0 mi Variable 4.6 mph - N/A   Clear
11:53 AM 75.0 °F 50.0 °F 41% 30.29 in 10.0 mi West 5.8 mph - N/A   Clear
12:53 PM 75.9 °F 45.0 °F 33% 30.27 in 10.0 mi Variable 4.6 mph - N/A   Clear
1:53 PM 77.0 °F 48.0 °F 36% 30.26 in 10.0 mi WSW 4.6 mph - N/A   Clear
2:53 PM 78.1 °F 48.0 °F 35% 30.24 in 10.0 mi WSW 3.5 mph - N/A   Clear
3:53 PM 79.0 °F 52.0 °F 39% 30.22 in 10.0 mi Calm Calm - N/A   Clear
4:53 PM 78.1 °F 52.0 °F 40% 30.20 in 10.0 mi Calm Calm - N/A   Clear
5:53 PM 75.0 °F 51.1 °F 43% 30.19 in 10.0 mi Calm Calm - N/A   Clear
6:53 PM 68.0 °F 57.0 °F 68% 30.17 in 10.0 mi Calm Calm - N/A   Clear
7:53 PM 64.0 °F 55.9 °F 75% 30.17 in 10.0 mi Calm Calm - N/A   Clear
8:53 PM 63.0 °F 55.9 °F 78% 30.17 in 10.0 mi Calm Calm - N/A   Clear
9:53 PM 63.0 °F 55.0 °F 75% 30.17 in 10.0 mi Calm Calm - N/A   Clear
10:53 PM 61.0 °F 54.0 °F 78% 30.15 in 10.0 mi Calm Calm - N/A   Clear
11:53 PM 61.0 °F 54.0 °F 78% 30.14 in 10.0 mi Calm Calm - N/A   Clear